Waarnemingen

Advertentie
Mijn weer
Salon, Frankrijk (7648): temperatuur & dauwpunt: 23.03.2017 01:00:00 - 29.03.2017 01:00:00 (CEST)Salon, Frankrijk (7648): temperatuur 5cm: 23.03.2017 01:00:00 - 29.03.2017 01:00:00 (CEST)Salon, Frankrijk (7648): windsnelheid & windstoten: 23.03.2017 01:00:00 - 29.03.2017 01:00:00 (CEST)Salon, Frankrijk (7648): windrichting: 23.03.2017 01:00:00 - 29.03.2017 01:00:00 (CEST)Salon, Frankrijk (7648): luchtdruk: 23.03.2017 01:00:00 - 29.03.2017 01:00:00 (CEST)Salon, Frankrijk (7648): zicht: 23.03.2017 01:00:00 - 29.03.2017 01:00:00 (CEST)Salon, Frankrijk (7648): neerslag: 23.03.2017 01:00:00 - 29.03.2017 01:00:00 (CEST)
Datum & Tijd tt [°C] td [°C] tt 5cm [°C] ff [km/u] ff [kn] fx [km/u] fx [kn] dd ppp [hPa] vv [km] rr [mm]
29.03.2017 01:00:00 6,7 5,6 3,6 0 0 4 2 N 1024,8 17 0,0
29.03.2017 00:00:00 7,1 5,7 4,1 0 0 6 3 N 1025,0 23 0,0
28.03.2017 23:00:00 8,6 5,9 5,0 3 2 5 3 ZZW 1025,0 29 0,0
28.03.2017 22:00:00 10,8 7,1 6,8 0 0 5 3 N 1024,7 54 0,0
28.03.2017 21:00:00 12,4 7,1 - 4 2 11 6 ZZW 1024,3 55 0,0
28.03.2017 20:00:00 15,7 6,9 14,6 6 4 26 14 WZW 1023,8 60 0,0
28.03.2017 19:00:00 17,9 7,6 20,0 14 8 25 13 W 1023,3 51 0,0
28.03.2017 18:00:00 18,5 4,6 18,5 13 7 23 12 WZW 1023,4 53 0,0
28.03.2017 17:00:00 18,2 4,4 19,5 15 8 27 15 W 1023,8 51 0,0
28.03.2017 16:00:00 18,6 2,4 20,3 14 7 30 16 W 1024,2 41 0,0
28.03.2017 15:00:00 18,0 4,2 20,1 16 9 29 16 W 1024,8 48 0,0
28.03.2017 14:00:00 18,4 5,2 - 15 8 31 17 W 1025,4 45 -
28.03.2017 13:00:00 18,2 6,1 22,4 17 9 31 17 WNW 1025,8 59 0,0
28.03.2017 12:00:00 17,4 6,9 19,9 13 7 22 12 NW 1026,1 20 0,0
28.03.2017 11:00:00 15,2 7,0 18,5 11 6 16 8 NNW 1026,2 30 0,0
28.03.2017 10:00:00 11,8 7,9 13,2 0 0 4 2 N 1026,2 37 0,0
28.03.2017 09:00:00 8,2 7,3 5,4 3 1 4 2 N 1025,9 18 0,0
28.03.2017 08:00:00 5,6 5,3 1,7 0 0 4 2 N 1025,6 18 0,0
28.03.2017 07:00:00 4,8 4,4 1,7 0 0 3 2 N 1025,2 0,3 0,0
28.03.2017 06:00:00 5,8 5,4 2,3 0 0 2 1 N 1025,0 0,2 0,0
28.03.2017 05:00:00 6,4 5,7 3,7 0 0 2 1 N 1024,7 8 0,0
28.03.2017 04:00:00 7,8 7,0 5,5 0 0 3 2 N 1024,8 18 0,0
28.03.2017 03:00:00 7,6 6,8 4,7 0 0 5 3 N 1025,4 16 0,0
28.03.2017 02:00:00 7,9 7,0 4,8 0 0 5 3 N 1025,2 16 0,0
28.03.2017 01:00:00 8,4 7,5 - 0 0 2 1 N 1025,1 21 0,0
28.03.2017 00:00:00 7,9 7,1 4,7 2 1 4 2 NNO 1024,9 18 0,0
27.03.2017 23:00:00 8,6 7,4 5,5 0 0 5 3 N 1024,6 19 0,0
27.03.2017 22:00:00 10,7 8,1 6,8 4 2 5 3 ZZW 1024,2 31 0,0
27.03.2017 21:00:00 12,6 8,3 10,9 5 3 13 7 ZW 1023,6 41 0,0
27.03.2017 20:00:00 14,5 8,4 13,1 6 3 13 7 W 1022,8 46 0,0
27.03.2017 19:00:00 16,2 9,4 16,7 8 4 16 9 ZW 1022,1 53 0,0
27.03.2017 18:00:00 17,0 9,9 - 8 4 18 10 WZW 1022,0 55 0,0
27.03.2017 17:00:00 16,8 9,5 - 13 7 31 17 ZZW 1022,4 60 -
27.03.2017 16:00:00 17,0 9,4 20,8 18 10 34 18 ZZW 1022,5 20 0,0
27.03.2017 15:00:00 16,8 10,6 18,0 19 10 36 19 Z 1023,0 20 0,0
27.03.2017 14:00:00 16,2 10,1 16,4 22 12 40 22 Z 1023,4 60 0,0
27.03.2017 13:00:00 15,3 9,6 16,5 26 14 43 23 Z 1023,4 46 0,0
27.03.2017 12:00:00 16,0 8,7 18,0 15 8 23 13 ZZW 1023,2 55 0,0
27.03.2017 11:00:00 16,0 9,0 - 13 7 28 15 Z 1022,5 19 -
27.03.2017 10:00:00 14,9 9,0 14,5 10 5 34 18 O 1022,0 52 0,0
27.03.2017 09:00:00 12,8 8,9 8,0 21 12 36 19 O 1021,4 60 0,0
27.03.2017 08:00:00 8,2 7,8 4,3 5 3 18 10 ZO 1021,2 46 0,0
27.03.2017 07:00:00 7,1 6,8 3,9 4 2 14 8 NNO 1020,6 18 0,0
27.03.2017 06:00:00 6,7 6,4 4,0 10 5 13 7 ONO 1020,5 10 0,0
27.03.2017 05:00:00 6,9 6,5 - 5 3 11 6 O 1020,5 7 -
27.03.2017 04:00:00 8,6 8,2 6,5 6 4 10 6 NO 1020,6 12 0,0
27.03.2017 03:00:00 9,6 9,3 6,7 3 2 5 3 NO 1020,8 14 0,0
27.03.2017 02:00:00 7,2 6,9 3,9 0 0 6 4 N 1020,5 7 0,0
27.03.2017 01:00:00 7,3 6,9 4,0 3 2 6 4 NNO 1020,3 9 0,0
27.03.2017 00:00:00 7,1 6,5 4,3 0 0 3 1 N 1020,0 2,1 0,0
26.03.2017 23:00:00 8,4 7,6 5,1 0 0 2 1 N 1019,8 1,0 0,0
26.03.2017 22:00:00 9,5 7,9 6,8 0 0 5 3 N 1019,8 13 0,0
26.03.2017 21:00:00 11,5 8,7 8,5 0 0 16 8 N 1019,4 38 0,0
26.03.2017 20:00:00 13,7 9,9 12,8 11 6 19 10 ZZW 1018,4 48 0,0
26.03.2017 19:00:00 15,7 9,8 16,0 9 5 16 9 ZZW 1018,0 20 0,0
26.03.2017 18:00:00 16,8 9,0 - 9 5 18 10 W 1017,8 55 0,0
26.03.2017 17:00:00 17,7 9,1 19,9 8 4 21 11 ZZW 1018,3 50 0,0
26.03.2017 16:00:00 16,6 8,0 17,6 10 6 19 10 ZW 1019,0 20 0,0
26.03.2017 15:00:00 16,2 8,2 16,8 11 6 27 14 ZW 1019,9 43 0,0
26.03.2017 14:00:00 15,6 8,1 18,1 14 7 29 16 ZW 1020,5 56 0,0
26.03.2017 13:00:00 15,7 6,9 16,5 9 5 18 10 ZW 1020,4 18 0,0
26.03.2017 12:00:00 15,8 7,5 15,7 6 4 16 9 ZZO 1020,9 20 0,0
26.03.2017 11:00:00 13,5 6,6 15,2 6 4 15 8 ONO 1020,8 60 0,0
26.03.2017 10:00:00 11,8 5,0 13,3 8 4 16 9 ONO 1020,5 60 0,0
26.03.2017 09:00:00 9,0 4,2 5,9 8 4 13 7 ONO 1020,2 60 0,0
26.03.2017 08:00:00 5,7 3,5 - 8 4 15 8 ONO 1019,9 60 -
26.03.2017 07:00:00 5,8 4,0 4,8 9 5 16 8 ONO 1019,7 60 0,0
26.03.2017 06:00:00 6,4 4,2 5,2 8 5 21 11 ONO 1019,9 60 0,0
26.03.2017 05:00:00 6,4 4,6 4,7 11 6 18 10 ONO 1020,1 60 0,0
26.03.2017 04:00:00 5,8 4,1 4,5 10 6 17 9 ONO 1020,3 60 0,0
26.03.2017 03:00:00 5,8 4,0 4,4 10 6 16 9 ONO 1020,8 60 0,0
26.03.2017 02:00:00 6,0 4,0 4,7 8 4 18 10 ONO 1020,8 60 0,0
26.03.2017 01:00:00 6,0 4,2 3,6 7 4 16 8 ONO 1020,9 60 0,0
26.03.2017 00:00:00 6,1 4,1 3,6 8 4 15 8 ONO 1020,6 60 0,0
25.03.2017 23:00:00 6,5 4,3 4,6 7 4 22 12 ONO 1020,3 60 0,0
25.03.2017 22:00:00 7,5 5,0 6,4 14 7 22 12 O 1020,3 60 0,0
25.03.2017 21:00:00 8,4 5,5 7,6 13 7 24 13 ONO 1019,4 60 0,0
25.03.2017 20:00:00 8,9 6,0 8,3 16 8 29 16 O 1019,0 60 0,0
25.03.2017 19:00:00 9,6 6,1 9,5 17 9 29 16 O 1018,9 60 0,0
25.03.2017 18:00:00 10,6 7,8 - 16 9 26 14 ONO 1018,9 60 0,0
25.03.2017 17:00:00 12,3 9,3 12,9 9 5 14 8 OZO 1018,7 52 0,0
25.03.2017 16:00:00 12,4 9,2 13,0 10 5 16 9 OZO 1019,3 46 0,0
25.03.2017 15:00:00 11,9 9,8 12,2 8 5 13 7 OZO 1019,7 20 0,0
25.03.2017 14:00:00 11,8 10,0 11,7 4 2 11 6 O 1019,8 38 0,0
25.03.2017 13:00:00 11,5 9,7 10,9 7 4 22 12 OZO 1019,7 20 0,2
25.03.2017 12:00:00 11,3 10,4 9,5 14 8 35 19 ZZO 1018,6 10 3,2
25.03.2017 11:00:00 10,2 8,8 9,1 24 13 63 34 ZO 1017,8 4,1 9,5
25.03.2017 10:00:00 14,0 10,6 12,4 31 17 52 28 ZZO 1015,9 18 0,0
25.03.2017 09:00:00 16,6 7,5 16,1 31 17 55 30 O 1014,1 52 0,0
25.03.2017 08:00:00 16,6 7,8 16,0 33 18 58 31 OZO 1013,8 50 0,0
25.03.2017 07:00:00 17,0 7,3 15,1 38 20 66 35 O 1013,5 53 0,0
25.03.2017 06:00:00 16,2 6,9 14,5 20 11 39 21 O 1013,5 59 0,0
25.03.2017 05:00:00 16,2 6,6 14,8 24 13 53 29 OZO 1014,2 60 0,0
25.03.2017 04:00:00 16,5 7,2 12,2 32 17 63 34 O 1015,1 60 0,0
25.03.2017 03:00:00 14,8 7,3 11,8 20 11 37 20 O 1016,5 60 0,0
25.03.2017 02:00:00 14,7 6,8 11,7 8 5 34 19 ONO 1016,8 60 0,0
25.03.2017 01:00:00 17,0 6,8 14,8 24 13 48 26 O 1016,3 60 0,0
25.03.2017 00:00:00 16,5 6,9 12,9 18 10 37 20 O 1016,2 60 0,0
24.03.2017 23:00:00 15,7 6,7 13,1 17 9 39 21 ONO 1015,7 60 0,0
24.03.2017 22:00:00 16,7 7,1 14,2 22 12 36 19 ONO 1016,0 60 0,0
24.03.2017 21:00:00 15,7 6,7 14,3 14 8 45 24 ONO 1016,2 60 0,0
24.03.2017 20:00:00 16,7 6,5 15,6 30 16 50 27 O 1016,2 60 0,0
24.03.2017 19:00:00 16,5 7,4 14,2 34 19 54 29 O 1016,1 60 0,0
24.03.2017 18:00:00 16,8 9,5 16,3 30 16 60 33 OZO 1016,2 56 0,0
24.03.2017 17:00:00 16,9 10,0 16,3 35 19 74 40 O 1015,8 54 0,0
24.03.2017 16:00:00 16,5 10,6 16,6 40 22 84 45 O 1014,8 51 0,0
24.03.2017 15:00:00 17,1 10,9 14,5 44 24 72 39 O 1015,0 60 0,0
24.03.2017 14:00:00 15,0 10,8 13,0 30 16 55 30 OZO 1015,9 51 0,0
24.03.2017 13:00:00 13,7 11,6 12,6 27 15 46 25 O 1016,5 20 0,2
24.03.2017 12:00:00 13,8 11,0 - 29 16 52 28 OZO 1017,0 15 0,2
24.03.2017 11:00:00 12,9 10,6 - 5 3 22 12 ONO 1016,5 19 -
24.03.2017 10:00:00 12,1 10,3 11,1 10 5 27 14 O 1016,8 58 0,0
24.03.2017 09:00:00 12,0 10,2 11,0 15 8 29 16 OZO 1017,0 35 0,0
24.03.2017 08:00:00 12,0 10,2 11,0 14 8 26 14 OZO 1016,6 57 0,0
24.03.2017 07:00:00 11,8 10,5 10,9 11 6 22 12 OZO 1016,6 15 0,0
24.03.2017 06:00:00 11,4 10,9 10,7 9 5 18 10 ZO 1016,0 7 0,4
24.03.2017 05:00:00 11,0 10,4 10,6 10 5 17 9 O 1015,9 50 0,0
24.03.2017 04:00:00 10,9 10,4 10,4 10 5 18 10 O 1016,3 55 3,0
24.03.2017 03:00:00 10,9 10,3 10,4 13 7 20 11 O 1016,7 4,5 3,3
24.03.2017 02:00:00 11,4 10,6 10,4 14 8 25 14 O 1016,8 11 2,0
24.03.2017 01:00:00 11,6 9,8 10,5 17 9 37 20 ZO 1016,7 11 2,4
24.03.2017 00:00:00 12,3 10,7 11,3 17 9 40 22 ZO 1016,3 20 0,2
23.03.2017 23:00:00 12,5 11,4 10,3 13 7 22 12 Z 1015,1 19 0,2
23.03.2017 22:00:00 11,6 9,5 8,8 11 6 46 25 ZZO 1014,2 11 20,1
23.03.2017 21:00:00 11,0 9,4 9,8 18 10 53 29 ZZO 1013,3 1,9 14,1
23.03.2017 20:00:00 14,0 12,2 12,9 18 10 41 22 Z 1012,6 9 1,8
23.03.2017 19:00:00 14,1 12,0 12,8 23 12 45 24 ZZO 1011,8 4,2 2,0
23.03.2017 18:00:00 15,5 11,3 15,7 25 14 55 30 ZZO 1011,5 18 0,0
23.03.2017 17:00:00 15,8 11,6 15,3 32 18 55 30 ZZO 1011,4 18 0,0
23.03.2017 16:00:00 16,2 11,4 17,1 28 15 54 29 Z 1010,7 19 0,0
23.03.2017 15:00:00 15,8 12,4 14,0 31 17 54 29 ZZO 1010,9 17 0,0
23.03.2017 14:00:00 17,5 10,4 16,4 31 17 55 30 ZZO 1010,7 20 0,0
23.03.2017 13:00:00 16,6 11,1 14,4 27 15 44 24 ZO 1011,1 20 0,0
23.03.2017 12:00:00 14,5 10,1 14,0 24 13 41 22 OZO 1010,9 10 0,0
23.03.2017 11:00:00 15,3 10,3 15,4 22 12 46 25 OZO 1010,9 60 0,0
23.03.2017 10:00:00 14,7 9,7 15,0 32 17 47 26 O 1010,6 56 0,0
23.03.2017 09:00:00 13,8 10,2 12,7 25 14 39 21 OZO 1010,6 56 0,0
23.03.2017 08:00:00 12,8 10,0 12,3 24 13 35 19 OZO 1010,4 45 0,0
23.03.2017 07:00:00 12,7 10,4 12,1 13 7 23 12 OZO 1010,2 28 0,0
23.03.2017 06:00:00 12,4 10,8 11,7 10 5 24 13 O 1010,1 31 0,0
23.03.2017 05:00:00 12,4 10,6 10,6 13 7 31 17 OZO 1010,2 25 1,8
23.03.2017 04:00:00 12,2 9,9 10,4 14 8 29 16 OZO 1010,6 3,5 4,3
23.03.2017 03:00:00 12,5 9,7 11,4 12 7 28 15 O 1011,1 36 0,2
23.03.2017 02:00:00 13,5 9,5 12,8 16 9 29 15 OZO 1011,7 41 0,0
23.03.2017 01:00:00 - - - - - - - - - - -

tt = temperatuur
td = dauwpunt
tt 5cm = temperatuur 5cm
ff = windsnelheid
fx = windstoten
dd = windrichting
ppp = luchtdruk
vv = zicht
rr = neerslag

Weerstations in de omgeving